GFSFLT2_925_spd_147.txt.gz
Wind_Speed
3 4 3 1 2 4 6 7 9 12 12 10 7 5 7 9 10 12 11 11 12 13 14 13 14 16 17
3 2 1 2 4 5 7 7 8 9 10 9 6 7 8 11 13 13 13 12 13 13 13 13 15 16 17
3 2 1 3 4 5 8 8 8 8 8 8 6 9 12 14 12 11 11 13 12 13 15 16 15 15 15
6 2 2 2 5 8 7 7 9 7 7 8 10 12 14 13 11 11 12 12 14 15 15 15 13 15 17
4 3 3 4 6 7 7 13 12 7 9 13 11 12 10 9 10 9 14 15 14 13 12 14 16 17 21
3 4 3 4 5 6 8 9 3 5 16 18 8 8 10 11 11 16 16 13 10 11 15 17 19 19 21
5 6 4 4 5 7 8 8 8 15 14 7 8 10 13 16 16 14 11 8 11 17 16 16 18 23 25
6 3 2 2 4 5 7 10 12 8 8 4 10 15 23 20 11 10 6 13 16 19 18 19 23 24 24
2 1 1 3 4 5 5 7 4 3 7 6 8 19 17 12 4 5 16 14 20 19 22 23 24 23 21
3 3 2 4 6 4 4 4 4 5 3 10 11 11 9 7 5 20 16 19 17 23 22 21 20 21 22
3 3 2 2 2 4 4 3 4 6 7 12 9 12 6 12 20 18 17 19 26 21 20 20 20 22 23
4 4 4 4 5 6 7 7 8 12 15 13 10 10 13 17 13 23 28 25 21 21 19 21 21 21 22
6 5 6 7 7 5 6 8 11 12 10 10 14 17 16 15 16 23 24 22 21 15 25 23 25 24 26
6 5 6 5 5 6 6 8 11 7 9 11 13 13 18 19 19 24 22 13 24 23 26 26 24 23 22
8 6 6 6 6 6 5 7 7 11 14 12 11 13 18 22 24 19 21 20 21 25 26 26 26 23 23
9 8 7 7 7 6 6 7 10 12 14 14 14 15 15 12 14 21 20 20 23 26 24 23 25 27 24
12 10 10 10 8 7 6 7 9 11 12 13 12 12 6 9 16 11 13 29 27 24 21 22 23 31 28

GFSFLT2_925_spd_153.txt.gz
Wind_Speed
1 1 3 3 4 5 7 7 6 6 5 4 2 2 3 3 4 5 6 5 6 7 7 7 7 9 8
3 2 1 2 3 3 4 4 4 5 5 3 1 1 2 4 5 5 4 5 7 7 7 8 9 9 8
4 3 3 3 2 3 4 5 4 4 4 3 2 3 3 4 4 5 5 6 8 9 9 9 8 8 8
5 4 4 4 6 4 4 5 4 4 5 6 4 3 4 4 4 5 6 9 9 8 7 6 7 10 11
5 3 2 2 3 3 3 3 4 5 12 7 5 5 6 5 4 5 7 8 6 5 7 9 10 12 13
4 4 4 4 2 2 3 2 0 3 11 2 4 4 10 11 12 6 3 4 5 8 11 11 15 15 16
5 4 5 3 2 1 2 1 1 5 7 2 2 9 13 11 3 3 4 7 11 10 12 13 14 17 18
3 4 3 3 2 1 1 3 2 2 7 1 6 10 12 6 7 5 6 11 12 13 14 16 18 17 17
5 6 4 3 2 3 2 1 1 0 6 6 5 12 6 3 3 3 16 7 16 20 15 14 15 16 18
6 5 4 2 1 1 1 2 2 1 3 6 6 10 6 3 6 14 10 12 25 15 14 14 14 18 22
7 6 6 4 3 2 3 2 2 1 0 6 4 3 4 7 12 12 10 27 18 13 12 15 18 18 22
11 10 9 8 6 4 5 5 5 7 7 9 4 3 5 7 8 15 24 23 15 12 22 20 21 22 21
13 12 10 8 7 6 5 5 5 6 6 5 7 7 8 10 13 17 21 15 18 18 28 27 26 31 28
14 11 11 10 6 6 4 4 4 5 1 3 4 8 12 15 18 22 18 10 26 27 28 27 30 29 25
16 15 14 11 8 6 6 4 3 3 6 5 5 7 12 17 20 19 19 21 23 26 27 26 29 25 25
19 17 16 14 10 9 9 8 7 6 7 9 11 14 10 6 10 13 17 18 28 27 26 21 24 27 28
22 19 17 13 11 12 11 9 8 7 7 8 9 11 2 3 13 9 10 27 26 24 22 22 25 30 33

GFSFLT2_925_spd_156.txt.gz
Wind_Speed
3 3 2 3 4 5 7 7 7 7 7 8 7 7 6 5 4 4 4 3 3 3 3 4 5 6 7
2 3 2 1 2 3 5 5 6 7 7 8 6 6 6 6 4 3 3 4 5 5 6 6 6 7 7
4 2 1 2 1 1 3 4 5 5 5 4 3 4 3 4 3 4 5 6 8 8 7 6 6 5 7
3 3 2 1 1 0 0 2 3 4 4 3 2 3 5 3 2 3 5 7 7 6 5 7 8 9 10
4 3 4 4 3 1 1 1 2 4 7 4 4 4 2 1 3 5 4 3 3 3 6 8 8 11 12
5 5 5 4 5 3 2 0 1 2 7 1 1 1 4 9 5 2 2 3 4 7 7 9 11 12 14
7 7 8 7 5 3 2 2 2 3 5 2 3 6 8 6 4 3 3 5 8 9 10 11 12 15 17
6 7 7 7 6 5 4 3 3 2 3 1 3 6 7 4 6 3 2 6 6 14 14 12 12 13 15
7 7 7 6 6 6 6 4 3 4 1 1 2 6 3 9 7 4 11 7 13 18 11 12 12 13 16
9 8 7 6 4 6 6 5 3 2 3 2 0 4 3 4 7 9 11 9 19 11 10 11 13 17 20
11 11 10 9 7 6 5 4 4 4 4 1 2 1 2 4 9 8 8 22 15 8 9 17 16 17 21
15 14 14 13 10 7 6 6 6 6 7 7 4 3 1 3 6 8 21 20 11 10 19 21 21 20 17
21 19 17 13 12 9 7 7 7 7 8 8 7 5 6 8 9 13 16 14 11 19 24 28 28 24 27
21 17 14 15 14 10 9 7 6 6 5 4 5 8 13 16 17 20 19 11 17 24 28 29 27 24 23
19 17 16 16 14 11 9 8 5 4 6 4 3 7 12 16 19 20 18 21 22 27 28 32 29 26 25
22 20 20 19 16 13 11 11 9 7 5 4 3 8 5 6 11 16 15 21 26 26 28 22 30 28 30
26 24 23 20 15 15 13 12 10 9 8 5 5 4 1 1 8 9 12 22 29 28 25 22 26 32 32

GFSFLT2_925_spd_159.txt.gz
Wind_Speed
7 7 6 6 5 5 6 7 9 9 7 6 6 6 6 6 5 5 4 5 6 7 6 5 5 6 6
5 6 6 5 5 4 3 4 5 8 8 7 7 7 8 8 6 6 6 5 5 3 4 5 6 4 5
8 6 5 5 4 3 2 2 2 2 3 3 3 4 5 5 5 5 4 7 6 6 5 4 4 4 5
9 8 7 5 4 4 4 2 2 1 2 1 3 6 5 4 3 2 2 4 5 4 3 4 5 6 7
7 5 6 6 6 5 4 4 4 2 2 1 2 2 1 1 3 4 3 2 4 4 6 7 9 10 11
9 7 10 8 8 7 5 4 2 4 3 4 4 3 3 7 2 3 4 3 5 6 6 9 10 11 12
14 13 10 11 8 7 6 4 3 2 4 2 4 3 4 2 4 4 2 2 4 9 11 12 13 13 14
12 12 11 7 8 5 5 5 4 4 3 2 2 4 4 3 6 2 2 5 7 13 14 10 11 13 13
8 7 8 8 8 8 6 4 2 3 3 2 2 4 4 8 10 6 5 7 9 15 10 10 11 14 15
9 8 8 7 7 8 8 7 4 1 5 2 2 3 3 3 10 11 11 9 17 11 6 8 13 16 19
15 13 12 11 9 7 6 8 6 5 4 3 3 2 2 4 5 8 9 13 16 10 6 14 16 16 22
19 19 17 16 13 10 8 8 8 7 6 6 4 5 2 2 5 5 13 15 10 12 16 19 21 20 17
23 25 22 16 14 13 12 10 10 9 10 10 10 9 7 7 5 11 13 12 13 9 22 25 26 23 26
25 24 18 17 17 15 12 11 9 9 8 7 6 9 11 15 17 20 18 10 13 18 24 27 27 23 22
23 20 18 17 18 16 13 10 9 4 9 7 6 8 12 17 18 17 14 16 16 19 25 28 28 23 21
24 23 21 20 19 17 15 12 11 10 8 7 6 8 8 10 15 19 14 17 18 23 23 22 23 24 27
26 25 23 20 17 19 18 14 13 12 10 8 6 4 1 2 6 10 11 17 24 25 21 21 25 36 31